Home   Weather   Passo Fundo   Past weeks

Flag for Brazil Past Weather in Passo Fundo, Rio Grande do Sul, Brazil — Yesterday and Last 2 Weeks

Now
66 °F

Passing clouds.


Feels Like: 66 °F
Forecast: N/A
Wind: 8 mph from South

Location: Porto Alegre Aero-Porto

Current Time: Sep 26, 2016 at 5:58:23 PM

Latest Report: Sep 26, 2016 at 5:00 PM


Visibility: N/A

Pressure: 30.07 "Hg (27.77 "Hg at 680m altitude)

Humidity: 52%

Dew Point: 48 °F

Location of Passo FundoLocation

Past Weather in Passo Fundo — Graph

°F

Passo Fundo Temperature Yesterday

Maximum temperature yesterday: 61 °F (at 3:00 PM)
Minimum temperature yesterday: 52 °F (at 11:00 PM)
Average temperature yesterday: 57 °F

High & Low Weather Summary for the Past Weeks

 TemperatureHumidityPressure
High88 °F (Sep 12, 2:00 PM)94% (Sep 11, 11:00 PM)30.24 "Hg (Sep 11, 11:00 PM)
Low48 °F (Sep 16, 4:00 AM)30% (Sep 17, 5:00 PM)29.39 "Hg (Sep 13, 2:00 AM)
Average62 °F70%30.04 "Hg
* Reported Sep 11 4:00 PM — Sep 26 4:00 PM, Passo Fundo, Weather by CustomWeather, © 2016

Note: Actual official high and low records may vary slightly from our data, if they occured in-between our weather recording intervals... More about our weather records

Advertising

Passo Fundo Weather History for the Previous 24 Hours

Scroll right to see more
 ConditionsComfort  
Time TempWeatherWind HumidityBarometerVisibility
4:00 PM
Mon, Sep 26
68 °FPassing clouds.10 mph49%30.09 "HgN/A
3:00 PM70 °FPassing clouds.10 mph46%30.07 "HgN/A
2:00 PM68 °FPassing clouds.10 mph49%30.09 "HgN/A
1:00 PM66 °FPassing clouds.9 mph56%30.12 "HgN/A
12:00 PM64 °FScattered clouds.6 mph56%30.15 "HgN/A
11:00 AM61 °FPartly sunny.2 mph68%30.15 "HgN/A
10:00 AM59 °FPartly sunny.2 mph72%30.18 "Hg6 mi
9:00 AM55 °FOvercast.2 mph82%30.15 "Hg6 mi
8:00 AM54 °FOvercast.3 mph88%30.15 "Hg5 mi
7:00 AM50 °FFog.2 mph94%30.12 "Hg3 mi
6:00 AM48 °FFog.2 mph94%30.12 "Hg3 mi
5:00 AM48 °FFog.No wind94%30.09 "Hg3 mi
4:00 AM50 °FClear.No wind88%30.09 "Hg10 mi
3:00 AM52 °FClear.No wind88%30.09 "Hg10 mi
2:00 AM54 °FPassing clouds.5 mph82%30.09 "HgN/A
1:00 AM55 °FPassing clouds.3 mph82%30.12 "HgN/A
12:00 AM55 °FPassing clouds.2 mph82%30.12 "HgN/A
11:00 PM
Sun, Sep 25
52 °FPassing clouds.2 mph82%30.15 "HgN/A
10:00 PM54 °FClear.2 mph77%30.15 "Hg10 mi
9:00 PM54 °FClear.2 mph82%30.15 "Hg10 mi
8:00 PM55 °FClear.3 mph77%30.15 "Hg10 mi
7:00 PM59 °FPassing clouds.5 mph68%30.15 "HgN/A
6:00 PM61 °FPassing clouds.7 mph59%30.15 "HgN/A
5:00 PM61 °FOvercast.5 mph59%30.12 "HgN/A
Weather by CustomWeather, © 2016

See weather overviewHow to use our weather pages